Home   Weather   Grand Rapids   Past weeks

Flag for USA Past Weather in Grand Rapids, Michigan, USA — Yesterday and Last 2 Weeks

Now
39 °F

Partly sunny.


Feels Like: 30 °F
Forecast: 29 / 40 °F
Wind: 16 mph from East

Location: Kent County International Airport

Current Time: Feb 22, 2018 at 4:03:16 pm

Latest Report: Feb 22, 2018 at 2:53 pm


Visibility: 10 mi

Pressure: 30.56 "Hg

Humidity: 67%

Dew Point: 29 °F

Location of Grand RapidsLocation

Past Weather in Grand Rapids — Graph

°F

Grand Rapids Temperature Yesterday

Maximum temperature yesterday: 37 °F (at 1:03 am)
Minimum temperature yesterday: 29 °F (at 11:53 pm)
Average temperature yesterday: 33 °F

High & Low Weather Summary for the Past Weeks

 TemperatureHumidityPressure
High62 °F (Feb 20, 2:12 pm)100% (Feb 20, 5:16 pm)30.80 "Hg (Feb 20, 5:16 pm)
Low7 °F (Feb 13, 3:53 am)46% (Feb 16, 2:53 pm)29.65 "Hg (Feb 15, 2:53 pm)
Average30 °F78%30.16 "Hg
* Reported Feb 7 2:53 pm — Feb 22 2:53 pm, Grand Rapids. Weather by CustomWeather, © 2018

Note: Actual official high and low records may vary slightly from our data, if they occured in-between our weather recording intervals... More about our weather records

Advertising

Grand Rapids Weather History for the Previous 24 Hours

Scroll right to see more
 ConditionsComfort  
Time TempWeatherWind HumidityBarometerVisibility
2:53 pm
Thu, Feb 22
39 °FPartly sunny.16 mph67%30.56 "Hg10 mi
1:53 pm38 °FPartly sunny.15 mph68%30.58 "Hg10 mi
12:53 pm36 °FPartly sunny.15 mph70%30.60 "Hg10 mi
11:53 am36 °FScattered clouds.13 mph73%30.63 "Hg10 mi
10:53 am33 °FPartly sunny.15 mph75%30.64 "Hg10 mi
10:00 am32 °FBroken clouds.15 mph79%30.61 "Hg10 mi
9:30 am31 °FMostly cloudy.13 mph82%30.60 "Hg10 mi
8:53 am31 °FOvercast.10 mph82%30.64 "Hg10 mi
7:53 am30 °FMore clouds than sun.8 mph82%30.62 "Hg10 mi
6:53 am30 °FMostly cloudy.8 mph79%30.59 "Hg10 mi
5:53 am30 °FOvercast.7 mph75%30.59 "Hg10 mi
4:53 am30 °FClear.8 mph75%30.58 "Hg10 mi
3:53 am29 °FClear.7 mph79%30.61 "Hg10 mi
2:53 am29 °FClear.8 mph75%30.61 "Hg10 mi
1:53 am29 °FClear.8 mph75%30.63 "Hg10 mi
12:53 am28 °FClear.7 mph78%30.65 "Hg10 mi
11:53 pm
Wed, Feb 21
29 °FOvercast.6 mph75%30.67 "Hg10 mi
10:53 pm30 °FOvercast.7 mph72%30.66 "Hg10 mi
9:53 pm30 °FOvercast.6 mph72%30.67 "Hg10 mi
8:53 pm31 °FPassing clouds.5 mph73%30.65 "Hg10 mi
7:53 pm32 °FPassing clouds.6 mph73%30.64 "Hg10 mi
6:53 pm33 °FOvercast.7 mph72%30.62 "Hg10 mi
5:53 pm34 °FOvercast.7 mph70%30.60 "Hg10 mi
4:53 pm35 °FOvercast.7 mph70%30.58 "Hg10 mi
Weather by CustomWeather, © 2018

See weather overview